DELTA 1 DEB, 14509

Orbit data source: Space-Track

DELTA 1 DEB, 14509 is space debris in SSO originally from a launch on Thu, 29 Jul 1976 UTC launched from the Air Force Western Test Range (AFWTR). Debris objects in space refer to the collection of defunct objects orbiting the Earth. Examples of debris include non-operational satellites, rocket bodies, and fragments generated from explosions, collisions, or faulty payload assembly.

Loading next visibility...
Identifier
14509, 1976-077EQ
Orbit
SSO
Country
Flag of USUS
Related business
Manufacturer
Unknown
Mission
Spacecraft
Bus & Motor
Unknown
Mass
Unknown
Launch date (UTC)
1976-07-29 (50 years ago)
Launch vehicle
Unknown
Launch site
Air Force Western Test Range (AFWTR)
Object type
Payload
Rocket body
Debris
Shape & HBR
Unknown shape, 0.1 m
Radar Cross Section
Medium (>0.1 m² and <1 m²)

Expand to show TLE details & history
Last TLE update: 7 hours ago

TLE from 7 hours ago
0 DELTA 1 DEB
1 14509U 76077EQ  26104.86804574 -.00000038  00000-0  50329-4 0  9996
2 14509 102.3648  72.2542 0158343 357.6661  59.1608 12.12355465924979
Epoch: 2026-04-14T20:49Z
TLE epoch observation values (Epoch: 2026-04-14T20:49:59.151Z)
Latitude
56.39542°
Longitude
-102.44556°
Altitude
1,571.709 km
Speed
7.115 km/s
True Right ascension
03h 32m 21s
True Declination
56° 15' 11"
Sunlit
Object was in daylight at epoch
Visualization orbit readout
Latitude
Unknown
Longitude
Unknown
Altitude
Unknown
Speed
Unknown
Apparent Right ascension
Unknown
Apparent Declination
Unknown
Sunlit
N/A
Visualization observer readout
Local Sidereal Time
10:31:20
Azimuth
Unknown
Elevation
Unknown
Doppler factor
Unknown
Orbital elements
Apogee altitude
1,750.347 km
Perigee altitude
1,496.942 km
Semi-major axis
8,001.781 km
Eccentricity
0.01583
Inclination
102.3648°
RAAN
72.2542°
Arg. of periapsis
357.6661°
True anomaly
60.73449°
Mean anomaly
59.1608°
Eccentric anomaly
59.94606°
Mean motion
3.03224 °/min
Orbital period
118.72 mins
BSTAR
0.000050329
Loading maneuver chart data...
Computing Atmospheric mass density...
Loading historical data...
Loading historical data...
Loading historical data...
Loading historical data...
Loading historical data...
Loading historical data...
Loading historical data...

Documentation

Showing up to 5 results
|